Tracking 18980 objects as of 19-Feb-2018
HD Live streaming from Space Station
objects crossing your sky now

SL-12 R/B(2)

Track SL-12 R/B(2) now!


NORAD ID: 23683
Int'l Code: 1995-054D
Perigee: 35,706.7 km
Apogee: 35,872.2 km
Inclination: 14.1 °
Period: 1,435.9 minutes
Semi major axis: 42160 km
RCS: 1.5848 m2 (large)
Launch date: October 11, 1995
Source: Commonwealth of Independent States (former USSR) (CIS)
Launch site: TYURATAM MISSILE AND SPACE COMPLEX (TTMTR)

Note: This is a ROCKET BODY
aabbcc
Your satellite tracking list
Your tracking list is empty




NASA's NSSDC Master Catalog

Two Line Element Set (TLE):
1 23683U 95054D   18049.65027028 +.00000060 +00000-0 +00000-0 0  9993
2 23683 014.1196 025.1172 0019627 007.8247 002.0888 01.00287240081882
Source of the keplerian elements: AFSPC